Simultaneous Nadir Overpasses (SNOs) Predictions

Prediction of SNOs between GOES-14 and NOAA-20 Satellite Orbit:

Table of predicted SNOs for the next 14.0 days since TLE Epoch: 4/3/2021
Index Date Time (GOES-14) GOES-14 Lat,Lon NOAA-20 Lat,Lon Distance(km) Time Diff (sec)
1 04/04/2021 08:23:52 0.13,-104.34 0.27,-105.00 75.26 80
2 04/05/2021 08:07:48 0.13,-104.34 -0.72,-100.47 441.12 80
3 04/06/2021 20:29:45 -0.14,-104.32 -0.46,-105.78 166.55 80
4 04/07/2021 20:08:21 -0.14,-104.31 0.54,-101.25 348.52 80
5 04/09/2021 08:30:09 0.15,-104.32 0.66,-106.52 251.19 80
6 04/10/2021 08:14:05 0.15,-104.33 -0.39,-102.00 265.70 80
7 04/11/2021 20:36:02 -0.15,-104.33 -0.84,-107.30 338.68 80
8 04/12/2021 20:14:38 -0.15,-104.33 0.21,-102.78 176.67 80
9 04/14/2021 08:36:27 0.15,-104.32 0.98,-108.05 425.58 80
10 04/15/2021 08:20:22 0.15,-104.32 -0.01,-103.52 91.28 80
